Location: Bremen
(53.0793°N, 8.8017°E)
Time: 12:16:06
(UTC+02:00)

Altair - Pass Details

Date: 17 April 2024
Orbit: 1501 x 1682 km, 47.2° (Epoch: 17 May)

Event Time Altitude Azimuth Distance (km) Brightness Sun altitude
Rises 18:42:49 0° 173° (S) 4,911 10.1 14.8°
Reaches altitude 10° 18:48:27 10° 149° (SSE) 3,906 9.4 14.0°
Maximum altitude 18:52:22 13° 125° (SE) 3,649 9.1 13.4°
Drops below altitude 10° 18:56:14 10° 101° (E) 3,867 9.0 12.8°
Sets 19:01:42 0° 77° (ENE) 4,818 9.5 12.0°
